Date String (YYYY-MM-DD hh:mm:ss) UTC,Instrument flags,absolute air pressure of the measurement (hPa),sample flow rate (lpm),inlet stack bypass flow (lpm),air temperature of the measurement (°C),ambient temperature measured by the external sensor (°C),aerosol sample conditioner tube jacket temperature (°C),OPC LED temperature (°C),internal box temperature (°C),relative humidity of the measurement (%),span deviation,mass concentration of particles derived from Lorenz-Mie calculation of OPC scattering (μg/m³),mass concentration of particles derived from Lorenz-Mie calculation of OPC scattering (μg/m³),mass concentration of particles derived from Lorenz-Mie calculation of OPC scattering (μg/m³)
DateTimeUTC,F1_M11,P_M11,Q1_M11,Q2_M11,T1_M11,T2_M11,T3_M11,T4_M11,T5_M11,U1_M11,ZSPAN_M11,X0_M11,X2_M11,X1_M11
2024-03-08 12:00:00,SystemResetWarning,0829.5,5.00,000.00,018.7,018.7,000.0,027.3,020.9,20.7,0000.0,0003.40,0003.34,0003.31
2024-03-08 12:01:00,SystemResetWarning,0829.5,5.00,000.00,018.9,019.2,000.0,027.3,021.1,20.4,0000.0,0003.49,0003.39,0003.35
2024-03-08 12:02:00,SystemResetWarning,0829.4,4.98,000.00,018.9,019.0,000.0,027.3,021.0,20.3,0000.0,0003.58,0003.44,0003.41
2024-03-08 12:03:00,SystemResetWarning,0829.5,5.00,000.00,018.9,018.8,000.0,027.3,020.9,20.3,0000.0,0003.66,0003.48,0003.45
2024-03-08 12:04:00,SystemResetWarning,0829.4,5.01,000.00,018.9,018.6,000.0,027.3,020.7,20.3,0000.0,0003.75,0003.52,0003.48
2024-03-08 12:05:00,SystemResetWarning,0829.4,5.01,000.00,018.9,018.4,000.0,027.3,020.6,20.3,0000.0,0003.82,0003.56,0003.51
2024-03-08 12:06:00,SystemResetWarning,0829.4,5.00,000.00,018.8,018.3,000.0,027.3,020.6,20.2,0000.0,0003.85,0003.58,0003.53
2024-03-08 12:07:00,SystemResetWarning,0829.4,5.00,000.00,018.8,018.1,000.0,027.3,020.5,20.2,0000.0,0003.87,0003.59,0003.54
2024-03-08 12:08:00,SystemResetWarning,0829.4,4.99,000.00,018.8,018.0,000.0,027.3,020.4,20.3,0000.0,0003.91,0003.61,0003.56
2024-03-08 12:09:00,SystemResetWarning,0829.4,5.00,000.00,018.7,017.9,000.0,027.3,020.4,20.3,0000.0,0004.03,0003.66,0003.59
2024-03-08 12:10:00,SystemResetWarning,0829.4,5.00,000.00,018.7,017.8,000.0,027.3,020.3,20.3,0000.0,0004.07,0003.67,0003.61
2024-03-08 12:11:00,SystemResetWarning,0829.4,5.01,000.00,018.6,017.8,000.0,027.3,020.3,20.4,0000.0,0004.02,0003.66,0003.60
2024-03-08 12:12:00,SystemResetWarning,0829.4,5.00,000.00,018.6,017.7,000.0,027.2,020.2,20.4,0000.0,0004.08,0003.67,0003.60
2024-03-08 12:13:00,SystemResetWarning,0829.4,4.99,000.00,018.6,017.6,000.0,027.2,020.2,20.5,0000.0,0004.13,0003.68,0003.60
2024-03-08 12:14:00,SystemResetWarning,0829.5,5.00,000.00,018.5,017.6,000.0,027.2,020.2,20.5,0000.0,0004.19,0003.70,0003.62
2024-03-08 12:15:00,SystemResetWarning,0829.5,5.00,000.00,018.5,017.5,000.0,027.2,020.2,20.5,0000.0,0004.26,0003.73,0003.65
2024-03-08 12:16:00,SystemResetWarning,0829.5,5.01,000.00,018.5,017.5,000.0,027.2,020.1,20.6,0000.0,0004.30,0003.75,0003.67
2024-03-08 12:17:00,SystemResetWarning,0829.6,5.01,000.00,018.5,017.7,000.0,027.2,020.3,20.6,0000.0,0004.34,0003.78,0003.70
2024-03-08 12:18:00,SystemResetWarning,0829.6,5.00,000.00,018.7,018.6,000.0,027.3,020.8,20.4,0000.0,0004.40,0003.80,0003.72
2024-03-08 12:19:00,SystemResetWarning,0829.7,5.00,000.00,018.9,019.2,000.0,027.4,021.2,20.2,0000.0,0004.45,0003.83,0003.75
2024-03-08 12:20:00,SystemResetWarning,0829.6,4.99,000.00,019.0,019.1,000.0,027.3,021.1,20.1,0000.0,0004.45,0003.84,0003.78
2024-03-08 12:21:00,SystemResetWarning,0829.6,5.00,000.00,018.9,018.9,000.0,027.3,020.9,20.1,0000.0,0004.44,0003.86,0003.80
2024-03-08 12:22:00,SystemResetWarning,0829.6,5.01,000.00,018.9,018.7,000.0,027.3,020.8,20.1,0000.0,0004.51,0003.89,0003.83
2024-03-08 12:23:00,SystemResetWarning,0829.6,5.00,000.00,018.9,018.5,000.0,027.3,020.7,20.1,0000.0,0004.56,0003.93,0003.87
2024-03-08 12:24:00,SystemResetWarning,0829.5,5.00,000.00,018.9,018.4,000.0,027.3,020.7,20.1,0000.0,0004.61,0003.96,0003.91
2024-03-08 12:25:00,SystemResetWarning,0829.5,5.00,000.00,018.9,018.2,000.0,027.3,020.6,20.2,0000.0,0004.63,0003.99,0003.94
2024-03-08 12:26:00,SystemResetWarning,0829.5,4.99,000.00,018.8,018.1,000.0,027.3,020.5,20.2,0000.0,0004.65,0004.01,0003.96
2024-03-08 12:27:00,SystemResetWarning,0829.5,5.00,000.00,018.8,018.0,000.0,027.3,020.5,20.2,0000.0,0004.67,0004.03,0003.99
2024-03-08 12:28:00,SystemResetWarning,0829.5,5.02,000.00,018.8,017.9,000.0,027.3,020.4,20.3,0000.0,0004.73,0004.07,0004.02
2024-03-08 12:29:00,SystemResetWarning,0829.6,4.99,000.00,018.7,017.8,000.0,027.3,020.4,20.4,0000.0,0004.82,0004.12,0004.06
2024-03-08 12:30:00,SystemResetWarning,0829.6,4.99,000.00,018.7,017.7,000.0,027.3,020.3,20.5,0000.0,0004.88,0004.15,0004.10
2024-03-08 12:31:00,SystemResetWarning,0829.6,4.99,000.00,018.6,017.7,000.0,027.3,020.3,20.5,0000.0,0004.92,0004.18,0004.12
2024-03-08 12:32:00,SystemResetWarning,0829.6,5.01,000.00,018.6,017.7,000.0,027.3,020.3,20.6,0000.0,0005.04,0004.23,0004.17
2024-03-08 12:33:00,SystemResetWarning,0829.6,5.01,000.00,018.6,017.6,000.0,027.3,020.2,20.6,0000.0,0005.13,0004.28,0004.21
2024-03-08 12:34:00,SystemResetWarning,0829.6,4.99,000.00,018.5,017.6,000.0,027.2,020.2,20.6,0000.0,0005.16,0004.31,0004.24
2024-03-08 12:35:00,SystemResetWarning,0829.6,4.99,000.00,018.5,017.5,000.0,027.2,020.2,20.7,0000.0,0005.25,0004.36,0004.29
2024-03-08 12:36:00,SystemResetWarning,0829.7,5.00,000.00,018.6,018.1,000.0,027.3,020.5,20.6,0000.0,0005.37,0004.42,0004.34
2024-03-08 12:37:00,SystemResetWarning,0829.7,5.02,000.00,018.8,019.0,000.0,027.4,021.1,20.4,0000.0,0005.49,0004.49,0004.41
2024-03-08 12:38:00,SystemResetWarning,0829.7,4.99,000.00,019.0,019.2,000.0,027.4,021.2,20.1,0000.0,0005.57,0004.53,0004.45
2024-03-08 12:39:00,SystemResetWarning,0829.7,5.00,000.00,019.0,019.0,000.0,027.4,021.1,20.0,0000.0,0005.69,0004.59,0004.49
2024-03-08 12:40:00,SystemResetWarning,0829.7,5.01,000.00,019.0,018.8,000.0,027.4,020.9,20.0,0000.0,0005.78,0004.63,0004.53
2024-03-08 12:41:00,SystemResetWarning,0829.7,5.00,000.00,019.0,018.6,000.0,027.4,020.8,20.0,0000.0,0005.83,0004.64,0004.54
2024-03-08 12:42:00,SystemResetWarning,0829.7,5.00,000.00,018.9,018.4,000.0,027.4,020.7,20.0,0000.0,0005.90,0004.65,0004.54
2024-03-08 12:43:00,SystemResetWarning,0829.7,4.99,000.00,018.9,018.3,000.0,027.4,020.6,20.1,0000.0,0005.93,0004.65,0004.54
2024-03-08 12:44:00,SystemResetWarning,0829.7,5.00,000.00,018.9,018.2,000.0,027.4,020.6,20.1,0000.0,0005.94,0004.64,0004.52
2024-03-08 12:45:00,SystemResetWarning,0829.7,5.00,000.00,018.8,018.1,000.0,027.4,020.5,20.1,0000.0,0005.99,0004.65,0004.52
2024-03-08 12:46:00,SystemResetWarning,0829.7,4.99,000.00,018.8,018.0,000.0,027.3,020.4,20.1,0000.0,0006.05,0004.67,0004.53
2024-03-08 12:47:00,SystemResetWarning,0829.7,5.00,000.00,018.7,017.9,000.0,027.3,020.4,20.1,0000.0,0006.02,0004.65,0004.51
2024-03-08 12:48:00,SystemResetWarning,0829.7,5.00,000.00,018.7,017.8,000.0,027.3,020.4,20.1,0000.0,0006.03,0004.64,0004.50
2024-03-08 12:49:00,SystemResetWarning,0829.7,5.01,000.00,018.7,017.7,000.0,027.3,020.3,20.2,0000.0,0006.04,0004.63,0004.49
2024-03-08 12:50:00,SystemResetWarning,0829.7,5.01,000.00,018.6,017.7,000.0,027.3,020.3,20.2,0000.0,0006.02,0004.63,0004.48
2024-03-08 12:51:00,SystemResetWarning,0829.7,4.99,000.00,018.6,017.7,000.0,027.3,020.3,20.2,0000.0,0005.99,0004.60,0004.45
2024-03-08 12:52:00,SystemResetWarning,0829.8,5.00,000.00,018.7,018.2,000.0,027.4,020.6,20.2,0000.0,0006.43,0004.61,0004.46
2024-03-08 12:53:00,SystemResetWarning,0829.8,5.01,000.00,018.9,019.1,000.0,027.5,021.2,19.9,0000.0,0006.53,0004.62,0004.47
2024-03-08 12:54:00,SystemResetWarning,0829.8,4.98,000.00,019.0,019.3,000.0,027.5,021.3,19.7,0000.0,0006.51,0004.63,0004.49
2024-03-08 12:55:00,SystemResetWarning,0829.8,4.99,000.00,019.1,019.2,000.0,027.4,021.1,19.7,0000.0,0006.47,0004.63,0004.50
2024-03-08 12:56:00,SystemResetWarning,0829.8,5.00,000.00,019.1,018.9,000.0,027.4,021.0,19.7,0000.0,0006.47,0004.63,0004.50
2024-03-08 12:57:00,SystemResetWarning,0829.8,5.00,000.00,019.0,018.7,000.0,027.4,020.9,19.7,0000.0,0006.44,0004.61,0004.47
2024-03-08 12:58:00,SystemResetWarning,0829.8,5.00,000.00,019.0,018.5,000.0,027.4,020.8,19.7,0000.0,0006.45,0004.59,0004.44
2024-03-08 12:59:00,SystemResetWarning,0829.8,5.00,000.00,019.0,018.4,000.0,027.4,020.7,19.7,0000.0,0006.37,0004.55,0004.40
